Wetbulb
52.36 52.54 52.95 53.33 53.41 53.82 54.38 54.69 54.66 54.85 55.08 55.07 55.35 55.72 56.43 57.13 56.95 53.89 47.80 53.00 55.48 58.01 57.68 53.17 51.82 50.87 51.41 48.29 48.83 48.93 39.73 34.45 34.76 35.97 36.81 42.05 39.69 42.63 44.43 41.66 43.08 44.67 43.90 47.18 50.03
52.08 52.04 52.43 52.82 53.00 53.35 54.15 54.32 54.32 54.66 54.87 54.82 55.07 55.50 56.39 56.60 52.02 49.04 54.13 57.48 57.96 57.59 51.31 49.31 47.76 49.48 45.46 45.63 45.09 42.29 36.96 35.74 39.72 39.99 38.32 40.71 40.17 40.82 40.61 40.97 41.53 43.49 47.29 49.02 49.64
52.06 51.49 51.89 52.26 52.57 53.17 53.84 53.95 54.10 54.45 54.75 54.83 55.08 55.77 56.50 54.92 48.95 47.56 55.85 57.20 57.91 57.33 52.48 50.98 50.38 49.03 43.45 44.02 42.25 41.13 36.28 40.33 41.16 42.15 41.66 40.70 40.73 42.79 40.12 38.38 41.99 41.46 44.12 47.15 48.35
51.97 51.12 51.39 51.82 52.22 52.78 53.54 53.63 53.93 54.42 54.73 54.49 55.48 56.20 56.81 52.54 41.88 49.46 56.69 58.63 59.64 56.23 53.10 50.74 49.33 44.84 40.73 39.05 42.53 37.81 41.77 42.60 42.63 43.50 42.28 39.72 42.07 40.85 41.00 41.56 45.14 45.06 46.21 45.54 43.92
51.92 50.98 51.07 51.68 51.87 52.52 53.21 53.33 53.77 54.32 54.52 54.34 55.59 56.56 53.49 47.99 44.71 51.73 56.62 56.77 54.81 53.31 49.77 48.54 45.90 43.88 38.98 40.52 42.16 39.09 40.46 42.84 43.23 43.42 42.52 42.81 40.85 40.14 41.29 43.73 45.83 46.15 43.87 42.53 42.64
51.80 51.06 51.08 51.38 51.80 52.36 52.75 53.08 53.74 54.18 54.04 54.68 55.65 55.47 50.35 44.16 50.50 52.13 53.03 53.60 52.56 51.91 48.97 48.41 45.58 45.63 41.95 41.26 39.80 41.34 41.72 41.56 42.88 43.42 43.31 40.60 41.18 42.95 42.20 45.71 45.16 44.29 42.64 43.27 44.10
51.88 51.20 51.14 51.35 51.73 52.23 52.26 53.00 53.66 53.73 53.43 54.82 55.48 52.05 47.80 43.18 51.32 51.67 52.69 52.68 52.88 51.61 48.20 49.56 49.38 46.09 44.65 40.78 43.61 41.36 38.07 39.91 41.61 42.76 41.76 42.81 39.82 38.58 44.03 44.64 42.61 42.11 42.21 42.59 44.41
52.05 51.40 51.21 51.31 51.69 51.98 52.06 52.88 52.71 52.76 52.98 54.68 54.96 51.30 43.02 51.03 50.97 50.58 52.20 52.82 53.90 52.99 51.04 50.89 50.56 46.60 43.76 43.80 41.28 38.74 38.36 34.33 40.11 41.20 42.40 41.22 33.43 40.04 43.69 42.42 41.18 41.93 41.78 41.97 42.85
52.41 51.57 51.30 51.40 51.63 51.48 52.13 52.24 51.85 50.97 52.44 52.93 51.22 48.84 42.11 51.10 47.82 50.06 51.00 48.82 51.39 51.93 51.17 50.51 49.65 44.19 43.95 39.46 36.59 37.80 30.31 30.98 37.26 41.83 41.01 39.42 33.40 39.88 43.30 41.74 40.22 40.64 41.04 41.33 41.59
52.67 51.73 51.41 51.43 51.32 51.36 51.37 50.83 52.20 49.80 50.22 47.13 46.75 44.81 44.78 43.13 47.84 48.34 51.39 50.36 49.42 48.97 48.82 47.89 45.47 40.64 39.56 37.96 28.69 30.53 31.11 34.43 32.08 38.85 38.69 36.93 36.22 38.84 41.03 40.86 39.25 40.01 40.40 40.35 40.32
52.65 52.04 51.61 51.20 50.81 50.96 48.72 47.27 44.64 43.46 43.84 39.81 40.88 42.21 43.68 47.23 49.08 48.55 49.85 48.50 49.04 46.20 40.61 43.85 39.25 33.25 34.76 36.19 35.42 33.33 30.66 30.01 35.06 40.28 36.46 35.96 35.07 37.80 40.19 39.96 38.95 39.27 39.06 39.41 39.91
53.12 52.34 51.75 50.77 50.44 49.90 47.98 43.73 42.91 44.71 37.73 43.15 42.99 43.40 45.00 46.21 43.24 45.87 49.79 45.10 44.28 39.10 41.26 39.60 33.53 38.79 40.21 39.42 37.02 32.68 32.20 32.66 34.77 39.53 36.20 32.73 32.33 39.10 39.37 39.39 39.57 39.08 38.21 38.99 39.36
53.49 52.65 51.75 50.15 49.82 47.70 46.31 44.85 48.10 47.49 40.47 39.23 42.42 42.95 43.31 45.06 42.13 42.43 46.18 45.05 41.73 39.49 38.78 35.18 38.00 41.04 39.98 37.83 36.49 36.14 33.19 31.11 31.02 36.10 37.28 34.42 31.14 33.67 40.36 41.69 41.45 40.61 40.61 39.80 39.03
53.76 52.85 51.31 48.99 44.14 47.29 44.96 47.05 48.68 47.81 37.95 35.17 37.49 40.84 43.37 45.21 40.53 45.99 45.85 43.89 41.81 38.12 38.87 37.26 40.28 39.38 37.65 37.09 36.27 32.90 37.67 35.79 35.11 32.69 25.20 32.87 22.46 32.61 37.03 38.49 39.97 39.28 38.07 38.76 38.63
53.84 52.87 50.57 48.32 46.91 43.19 45.69 47.87 47.77 46.18 27.50 36.00 37.41 45.10 43.81 41.18 41.45 42.14 45.76 43.60 38.53 38.28 37.54 33.91 36.08 35.08 35.80 35.57 36.93 34.37 37.57 35.31 35.01 32.68 30.45 29.76 25.75 29.54 37.48 35.90 37.01 37.24 38.07 37.73 38.31
53.85 51.32 48.00 45.67 46.78 46.56 47.95 46.53 45.59 34.37 24.53 30.24 38.03 37.88 38.09 39.93 40.05 42.33 42.28 43.73 42.41 38.41 38.50 36.13 39.15 37.28 35.96 37.72 37.23 38.29 35.65 36.39 34.60 31.89 22.84 26.89 27.16 28.63 32.76 35.38 37.50 37.22 37.34 37.35 37.47
53.00 49.93 46.51 45.93 43.22 47.50 46.76 44.23 31.60 27.75 32.49 27.82 31.87 36.56 36.72 35.20 36.87 39.32 38.05 34.68 33.56 27.95 28.83 32.51 34.89 37.08 37.67 34.08 36.92 35.85 31.87 25.13 22.41 21.63 20.73 28.84 26.56 28.84 36.61 38.77 38.16 35.79 36.29 36.16 36.63
51.18 47.71 45.80 45.68 46.72 47.06 45.02 35.88 24.99 32.00 28.74 33.24 34.21 35.17 32.18 34.94 34.42 36.66 34.52 31.19 34.50 32.61 29.86 28.46 26.94 33.83 36.76 33.62 30.17 31.91 30.22 23.23 18.24 19.92 21.65 26.51 23.53 29.66 37.80 40.38 38.97 37.74 36.90 37.12 35.82
47.95 43.99 43.60 44.54 46.36 45.13 39.11 28.30 30.32 31.87 33.35 31.54 33.06 29.44 28.72 32.21 32.27 34.09 32.34 32.28 34.12 34.50 30.92 27.92 26.04 35.04 36.36 36.91 35.21 31.64 27.19 31.72 26.58 19.59 21.27 25.38 27.51 33.16 36.73 37.24 38.01 36.18 36.27 34.78 34.62
42.90 41.62 41.01 44.77 45.05 42.80 32.62 31.32 29.59 31.44 35.03 34.94 29.84 31.27 25.58 28.32 29.29 29.84 31.14 33.59 32.75 35.79 36.35 30.62 26.36 31.57 35.30 36.17 35.39 33.52 34.86 26.46 26.54 14.77 15.96 22.96 22.93 25.39 30.21 34.13 36.89 35.74 34.54 34.19 34.02
41.15 37.13 41.00 44.72 43.52 36.51 28.56 29.07 28.43 32.75 34.80 32.44 30.75 24.76 30.81 26.82 30.08 30.23 31.09 31.97 35.00 34.72 35.49 33.48 30.58 27.62 31.99 30.22 29.25 31.11 29.91 30.08 29.14 25.97 21.98 20.05 23.41 31.89 33.57 35.72 36.45 36.53 36.67 34.98 34.53
39.46 32.36 41.64 42.24 33.26 31.59 29.26 28.77 33.49 30.11 34.66 31.42 31.39 31.92 30.08 28.98 28.63 29.76 28.50 32.10 36.17 36.37 31.43 34.27 31.57 25.94 27.18 32.60 35.08 33.73 30.83 31.66 24.06 23.61 24.62 24.55 22.47 34.64 34.58 37.17 39.23 37.58 37.25 35.89 35.47
34.43 34.62 42.28 39.61 27.59 28.40 25.80 25.21 28.35 29.13 30.62 30.63 29.28 32.39 33.48 30.47 24.98 29.57 29.12 32.84 35.25 34.52 32.18 34.07 27.35 21.95 25.99 30.06 31.32 29.40 32.36 32.90 31.43 27.83 24.91 21.57 25.46 35.45 34.81 33.87 38.47 36.53 35.89 35.97 34.71
35.53 30.05 34.57 35.09 36.25 32.46 26.94 26.10 23.82 31.03 32.23 33.30 31.69 32.75 29.90 26.44 26.56 26.32 28.65 31.56 32.13 35.04 36.29 35.82 28.98 27.13 24.55 26.17 29.15 26.84 29.45 31.19 29.72 23.49 25.82 25.25 26.23 29.84 32.90 34.09 35.64 37.01 35.96 35.11 34.64
34.01 32.71 32.20 24.96 27.95 32.71 32.33 28.56 25.22 23.30 30.13 33.00 28.63 30.30 29.42 22.86 25.61 23.85 28.43 28.76 31.31 35.68 33.14 31.29 20.37 22.18 25.59 27.23 26.81 25.88 26.63 29.52 27.88 28.87 24.61 27.07 27.17 31.85 32.06 34.67 35.56 37.06 36.37 35.74 35.07
33.01 32.01 32.94 31.87 31.29 32.46 33.67 27.43 27.67 28.84 28.20 26.78 27.68 31.24 31.59 26.36 29.35 25.23 29.25 28.33 27.65 31.32 30.86 30.55 19.61 19.34 17.01 23.79 23.90 23.81 25.36 27.02 26.96 28.94 30.44 30.78 30.00 36.56 36.65 36.86 35.41 37.13 37.12 35.89 35.73
43.36 42.84 39.50 34.30 30.80 30.71 30.69 30.82 30.76 32.10 31.81 33.66 32.84 31.41 29.24 31.02 33.54 34.05 33.97 33.61 31.76 29.29 24.45 25.19 17.44 17.78 19.72 18.91 18.04 19.32 22.74 24.16 25.09 28.68 29.44 24.89 31.59 34.87 33.31 34.63 34.54 36.66 37.73 36.75 36.56
MSLP
1020.56 1020.48 1020.46 1020.26 1020.20 1020.04 1019.77 1019.43 1019.11 1019.02 1018.71 1018.38 1018.19 1017.78 1017.29 1016.82 1015.95 1015.67 1016.48 1017.43 1016.76 1015.90 1015.13 1014.10 1013.35 1013.13 1012.82 1013.00 1013.04 1012.79 1013.23 1014.28 1015.23 1015.68 1015.96 1016.04 1016.31 1016.09 1016.18 1016.09 1015.97 1015.66 1015.38 1015.25 1014.64
1020.58 1020.48 1020.54 1020.30 1020.26 1020.05 1019.86 1019.47 1019.16 1019.02 1018.78 1018.46 1018.16 1017.81 1017.44 1017.12 1016.40 1016.32 1017.61 1017.07 1016.45 1015.75 1014.94 1014.12 1013.67 1013.21 1013.46 1013.77 1013.96 1013.75 1014.53 1015.80 1016.65 1017.01 1017.26 1017.18 1017.17 1017.00 1016.87 1016.71 1016.43 1016.11 1016.02 1015.67 1014.96
1020.63 1020.44 1020.59 1020.32 1020.26 1020.14 1019.83 1019.50 1019.20 1018.92 1018.77 1018.44 1018.10 1017.81 1017.45 1017.17 1016.60 1016.99 1017.22 1016.85 1016.16 1015.61 1015.08 1014.65 1014.11 1013.59 1013.98 1014.66 1015.13 1015.23 1016.07 1016.78 1017.40 1017.81 1018.02 1017.89 1017.80 1018.02 1017.59 1017.52 1017.44 1017.22 1016.63 1015.98 1015.38
1020.60 1020.39 1020.55 1020.34 1020.27 1020.09 1019.89 1019.49 1019.21 1018.96 1018.79 1018.32 1018.12 1017.68 1017.44 1017.01 1017.47 1017.28 1017.20 1016.67 1015.84 1015.16 1014.59 1014.30 1014.16 1014.16 1014.72 1015.41 1015.94 1016.51 1017.27 1017.42 1017.95 1018.08 1018.11 1018.26 1018.44 1018.30 1018.37 1018.62 1017.99 1017.50 1016.97 1016.78 1016.48
1020.59 1020.36 1020.47 1020.46 1020.28 1020.05 1019.85 1019.43 1019.19 1018.95 1018.83 1018.33 1017.96 1017.72 1017.25 1017.16 1017.84 1017.46 1017.24 1016.71 1015.79 1015.28 1015.04 1014.76 1014.62 1014.76 1015.43 1015.96 1016.38 1016.95 1017.65 1017.83 1018.03 1017.99 1018.20 1018.58 1018.57 1018.26 1018.73 1018.68 1018.14 1017.94 1017.75 1017.22 1016.73
1020.51 1020.36 1020.46 1020.46 1020.23 1020.04 1019.73 1019.42 1019.13 1018.90 1018.76 1018.32 1017.86 1017.69 1017.40 1017.54 1018.08 1017.78 1017.37 1017.10 1016.58 1015.84 1015.90 1015.42 1015.67 1015.57 1016.16 1016.71 1017.01 1017.54 1017.77 1017.98 1017.76 1017.82 1017.99 1018.50 1018.38 1018.55 1019.23 1018.80 1018.59 1018.17 1017.81 1017.24 1016.39
1020.37 1020.36 1020.42 1020.45 1020.12 1019.92 1019.58 1019.37 1019.01 1018.82 1018.62 1018.29 1017.85 1017.39 1017.27 1018.30 1017.96 1017.89 1017.43 1017.36 1017.07 1016.76 1016.55 1016.49 1016.24 1016.27 1016.58 1017.37 1017.93 1018.01 1018.02 1017.93 1017.85 1017.87 1018.18 1018.14 1018.37 1019.34 1019.20 1019.01 1018.96 1018.51 1018.26 1017.56 1016.78
1020.16 1020.33 1020.28 1020.35 1019.99 1019.80 1019.52 1019.09 1018.87 1018.71 1018.44 1018.26 1017.83 1017.33 1017.93 1018.13 1018.14 1017.93 1017.54 1017.23 1017.21 1017.23 1017.18 1017.17 1016.88 1016.97 1017.30 1018.07 1018.28 1018.15 1018.32 1018.39 1018.18 1018.21 1018.25 1018.26 1018.67 1019.24 1019.24 1019.30 1019.16 1018.91 1018.51 1018.01 1017.24
1019.98 1020.24 1020.20 1020.16 1019.93 1019.63 1019.32 1018.99 1018.67 1018.54 1018.29 1018.00 1017.78 1017.34 1018.15 1018.21 1018.18 1018.17 1017.99 1017.72 1017.42 1017.30 1017.38 1017.19 1016.95 1017.44 1017.97 1018.32 1018.59 1018.75 1019.14 1019.27 1018.58 1018.56 1018.73 1018.72 1019.21 1019.27 1019.44 1019.73 1019.69 1019.66 1019.26 1018.71 1018.08
1019.76 1020.14 1020.11 1020.02 1019.75 1019.52 1019.09 1018.95 1018.51 1018.43 1017.96 1017.64 1017.51 1017.90 1018.41 1018.40 1018.40 1018.35 1018.14 1018.06 1017.63 1017.25 1017.26 1017.20 1017.10 1017.68 1018.39 1018.97 1019.98 1020.18 1020.32 1019.82 1019.58 1019.16 1019.16 1019.27 1019.63 1019.70 1019.83 1019.91 1020.19 1020.00 1019.95 1019.32 1018.50
1019.46 1020.00 1019.95 1019.88 1019.68 1019.44 1019.07 1018.84 1019.06 1018.77 1018.32 1018.47 1018.47 1018.44 1018.56 1018.62 1018.55 1018.26 1018.33 1017.99 1017.54 1017.27 1017.06 1017.19 1017.69 1018.74 1019.60 1020.28 1020.82 1021.23 1021.50 1021.24 1020.01 1019.60 1019.77 1019.74 1019.98 1019.76 1019.91 1019.95 1019.92 1020.00 1020.16 1019.93 1019.10
1019.36 1019.67 1019.80 1019.73 1019.71 1019.50 1019.29 1018.90 1019.32 1019.40 1019.28 1018.88 1018.75 1018.77 1018.97 1018.92 1018.56 1018.42 1018.24 1018.06 1017.40 1017.34 1017.41 1017.70 1018.66 1019.58 1020.10 1020.36 1020.74 1021.57 1021.61 1021.27 1020.54 1020.05 1020.09 1020.26 1020.13 1019.73 1019.78 1019.71 1019.76 1020.14 1020.20 1020.14 1019.09
1019.16 1019.46 1019.63 1019.60 1019.65 1019.64 1019.09 1019.12 1019.30 1019.27 1019.09 1019.02 1018.92 1018.76 1018.98 1019.04 1018.79 1018.76 1018.57 1018.09 1017.72 1017.62 1017.77 1018.28 1019.37 1019.93 1020.16 1020.28 1020.41 1020.51 1020.76 1020.84 1020.70 1019.84 1019.57 1019.79 1019.96 1020.02 1019.46 1019.44 1019.55 1019.84 1020.25 1020.46 1020.51
1018.70 1019.39 1019.55 1019.44 1020.03 1019.25 1019.16 1019.30 1019.19 1019.36 1019.46 1019.21 1019.04 1019.11 1019.15 1018.97 1019.00 1019.04 1018.99 1018.85 1018.15 1018.19 1018.29 1019.03 1019.73 1019.92 1020.08 1020.03 1020.39 1020.03 1020.40 1020.62 1020.37 1020.06 1019.68 1019.45 1019.99 1019.52 1019.40 1019.41 1019.56 1019.77 1020.05 1020.45 1020.37
1018.40 1019.07 1019.57 1019.44 1019.37 1019.24 1019.40 1019.37 1019.35 1019.28 1019.70 1019.33 1019.15 1019.21 1018.99 1019.08 1019.11 1019.13 1019.18 1018.72 1018.60 1018.55 1018.84 1019.47 1019.75 1019.85 1019.88 1020.12 1020.40 1020.39 1020.39 1020.40 1020.48 1020.26 1019.80 1019.30 1019.61 1019.14 1019.05 1019.40 1019.67 1020.08 1020.35 1020.67 1020.88
1018.21 1018.80 1019.54 1019.45 1019.31 1019.52 1019.23 1019.46 1019.62 1019.95 1019.49 1019.32 1019.08 1019.11 1018.97 1018.91 1019.00 1019.00 1019.02 1019.00 1019.10 1018.93 1019.07 1019.63 1019.88 1019.95 1020.17 1020.10 1020.14 1020.24 1020.21 1020.11 1020.28 1020.17 1020.06 1019.76 1019.69 1019.29 1019.22 1019.69 1019.97 1020.48 1020.84 1020.97 1020.93
1018.06 1018.62 1019.39 1019.09 1019.33 1019.53 1019.32 1019.62 1020.52 1020.12 1019.64 1019.55 1019.08 1019.06 1018.72 1018.91 1019.12 1018.96 1019.05 1019.34 1019.46 1019.66 1020.14 1019.96 1020.02 1020.15 1020.33 1020.09 1020.12 1020.32 1020.22 1020.41 1020.88 1020.63 1020.45 1019.83 1019.64 1018.95 1019.06 1019.44 1020.00 1020.59 1021.16 1021.57 1021.69
1017.89 1018.82 1019.27 1019.42 1019.40 1019.64 1019.48 1020.22 1020.67 1019.67 1019.33 1019.17 1019.03 1019.07 1019.33 1019.22 1019.36 1019.38 1019.27 1019.72 1019.76 1019.56 1019.93 1020.17 1020.49 1020.46 1020.52 1020.48 1020.44 1020.27 1020.35 1020.89 1021.56 1021.65 1020.79 1019.65 1019.13 1018.89 1018.97 1019.37 1019.76 1020.36 1021.01 1021.61 1021.99
1018.02 1019.03 1019.55 1019.79 1019.60 1019.75 1019.78 1020.76 1019.51 1019.06 1018.60 1018.80 1019.36 1019.42 1019.79 1019.89 1019.79 1019.57 1019.58 1019.71 1019.88 1019.91 1019.87 1020.33 1020.97 1021.17 1021.00 1020.72 1020.77 1020.33 1020.71 1021.24 1021.56 1021.93 1021.20 1019.25 1018.54 1018.92 1019.07 1019.51 1019.80 1020.35 1020.94 1021.68 1022.17
1017.64 1018.76 1019.60 1019.80 1019.73 1019.77 1020.36 1020.22 1019.95 1019.33 1018.45 1018.48 1018.72 1019.13 1019.95 1020.14 1020.07 1020.10 1020.03 1020.16 1020.41 1020.28 1020.14 1020.53 1021.12 1021.38 1021.44 1021.32 1020.90 1020.44 1020.84 1021.30 1021.62 1022.06 1021.05 1019.31 1018.48 1018.05 1018.63 1019.04 1019.53 1020.16 1020.96 1021.63 1022.07
1017.17 1018.62 1019.79 1019.73 1019.76 1020.22 1020.72 1020.41 1020.11 1019.53 1019.06 1018.79 1018.67 1019.19 1019.58 1020.10 1020.49 1020.41 1020.32 1020.89 1020.44 1020.69 1020.60 1020.68 1021.02 1022.10 1021.89 1021.65 1021.04 1021.01 1020.67 1020.95 1021.43 1021.79 1021.57 1020.36 1018.48 1017.26 1017.14 1017.98 1018.88 1019.68 1020.50 1021.44 1022.21
1016.57 1018.82 1019.72 1019.76 1020.22 1020.64 1020.76 1020.30 1020.12 1019.78 1019.51 1019.15 1018.67 1018.82 1019.52 1020.21 1020.76 1020.49 1020.68 1020.41 1020.73 1020.80 1021.24 1021.41 1021.66 1022.24 1022.31 1022.06 1021.93 1021.40 1020.75 1020.70 1021.34 1022.04 1021.68 1021.09 1018.68 1017.20 1017.06 1017.30 1018.27 1019.26 1020.03 1021.03 1021.74
1016.20 1018.78 1019.68 1019.76 1019.68 1020.29 1020.73 1020.73 1020.54 1020.07 1019.73 1019.40 1019.05 1018.74 1019.37 1020.15 1021.14 1021.08 1021.68 1021.77 1021.36 1021.56 1021.79 1021.97 1022.45 1022.97 1022.80 1022.76 1022.44 1022.01 1021.23 1020.89 1021.12 1021.65 1021.54 1021.05 1018.44 1017.48 1017.64 1017.79 1018.13 1019.00 1019.88 1020.66 1021.32
1015.18 1018.00 1019.33 1019.46 1018.65 1018.65 1019.46 1020.11 1020.38 1020.03 1019.59 1019.10 1018.94 1018.87 1019.52 1020.63 1021.22 1021.40 1022.34 1022.58 1022.37 1022.31 1022.57 1022.66 1023.01 1023.00 1022.71 1021.68 1021.71 1022.10 1021.63 1021.40 1021.09 1021.32 1020.73 1019.54 1018.04 1017.47 1017.62 1017.81 1018.00 1018.53 1019.29 1020.51 1021.21
1013.04 1014.46 1015.13 1017.50 1018.13 1017.59 1017.77 1018.37 1019.32 1019.70 1019.59 1019.15 1019.04 1018.80 1018.93 1020.60 1021.41 1021.88 1022.37 1023.24 1023.33 1023.16 1023.60 1023.73 1024.26 1024.23 1023.41 1022.85 1022.27 1022.03 1021.84 1021.82 1021.55 1020.46 1019.98 1018.45 1017.97 1017.18 1016.78 1017.10 1017.48 1018.14 1018.99 1019.99 1020.99
1011.74 1012.85 1014.28 1014.56 1015.28 1016.38 1016.83 1017.27 1017.40 1018.13 1018.26 1018.50 1018.42 1018.36 1018.83 1019.36 1019.57 1020.77 1021.18 1022.77 1022.89 1023.96 1024.23 1024.61 1025.40 1025.51 1024.77 1024.09 1023.42 1022.50 1021.19 1021.54 1021.12 1020.67 1019.59 1018.45 1017.34 1016.09 1015.80 1015.95 1016.70 1017.51 1018.38 1019.30 1020.25
1009.78 1010.42 1010.75 1013.07 1014.16 1014.94 1015.14 1015.42 1015.98 1016.35 1017.44 1017.19 1017.32 1017.81 1019.05 1019.66 1019.77 1020.17 1020.72 1022.24 1023.12 1023.75 1024.92 1025.18 1026.13 1026.71 1025.75 1024.39 1023.55 1022.29 1020.09 1020.36 1020.06 1019.31 1018.83 1018.17 1015.96 1015.62 1015.58 1015.43 1015.88 1016.71 1017.50 1018.41 1019.07
Wind_Speed
5 7 8 9 10 12 12 12 12 13 12 13 12 11 13 16 18 9 10 10 14 19 19 10 6 4 5 4 5 0 2 5 5 7 8 11 9 6 8 8 10 7 8 16 17
5 6 8 9 10 11 12 13 12 13 13 12 11 10 11 12 6 13 9 14 16 17 9 11 7 6 3 4 4 6 5 5 5 6 7 9 9 9 9 13 10 14 18 18 18
5 5 7 8 10 12 12 12 13 13 13 12 11 11 11 8 4 7 16 17 18 14 5 4 6 3 6 5 8 7 4 2 6 6 7 9 8 11 9 11 15 19 21 20 14
6 4 7 8 10 11 12 13 13 13 13 11 12 11 10 5 1 8 15 15 17 8 5 5 3 1 4 5 3 6 6 5 4 4 4 7 9 10 9 12 17 17 15 17 19
6 5 6 8 9 11 12 13 13 13 12 10 10 10 5 2 5 9 12 12 9 7 9 5 7 4 5 5 8 10 5 1 2 4 5 6 11 4 13 16 15 20 19 18 17
6 5 6 7 9 11 12 13 13 12 11 9 9 10 4 1 5 9 8 9 13 9 11 10 7 7 8 5 6 4 2 2 3 6 5 7 9 8 15 17 19 21 21 18 16
7 6 6 7 9 11 11 13 13 11 9 9 9 4 5 5 4 6 6 6 8 11 9 6 3 3 4 5 1 3 3 6 5 7 3 7 6 11 13 16 19 20 17 18 19
8 6 6 7 8 11 12 12 11 8 8 9 8 4 4 2 5 7 9 2 5 5 5 5 7 5 5 5 4 3 2 3 6 8 2 5 4 9 10 13 16 20 18 19 23
8 7 6 7 9 10 12 12 8 8 7 9 5 2 3 1 2 4 5 5 5 2 3 3 4 3 4 1 2 5 2 2 2 6 7 7 4 3 8 9 12 16 18 17 17
8 8 6 6 8 11 12 9 6 8 6 4 3 1 1 2 2 4 3 4 3 3 3 3 2 3 6 3 1 3 4 4 3 6 7 6 7 4 7 8 9 13 15 17 19
10 8 5 5 7 9 8 3 2 2 6 4 3 2 3 2 2 2 3 5 4 5 1 3 4 5 6 7 5 4 3 4 4 5 6 4 6 4 6 7 8 11 13 15 16
10 8 5 4 7 7 4 3 2 1 4 1 2 4 2 2 1 6 6 3 4 3 1 1 6 6 5 3 3 4 1 4 9 5 2 5 8 4 2 3 6 7 10 15 19
11 8 5 2 6 4 4 3 0 2 2 3 2 2 1 4 3 5 7 2 4 4 4 5 6 4 2 3 6 6 3 3 4 7 3 6 2 5 2 6 7 7 7 9 13
12 9 5 1 1 3 1 4 1 3 2 5 3 2 2 2 2 2 3 2 1 4 5 6 3 1 2 3 4 2 6 6 7 7 2 3 4 1 3 5 7 8 10 11 12
13 10 6 5 2 2 4 2 1 1 3 2 4 2 2 2 3 2 1 4 4 5 2 2 5 2 3 3 4 3 4 5 5 5 6 4 2 2 6 6 7 8 10 9 9
15 12 6 2 2 2 4 1 2 5 7 3 4 4 5 3 2 4 2 1 2 2 4 4 1 2 5 3 4 4 5 3 2 3 3 4 2 2 3 2 5 7 8 10 12
16 13 5 2 2 4 3 2 5 4 4 3 4 5 4 4 3 3 4 1 2 5 1 2 3 4 1 4 4 5 5 1 4 4 2 4 3 1 5 5 5 5 7 7 7
18 13 3 3 2 3 2 5 2 0 4 2 3 6 3 4 1 4 4 3 1 3 3 3 3 1 2 3 1 2 2 3 0 3 4 2 4 3 7 5 5 5 5 6 7
19 3 3 2 3 2 4 2 7 6 7 10 4 4 2 2 1 5 2 2 3 2 4 3 2 1 1 2 2 1 4 0 0 1 2 3 2 4 6 6 5 3 3 5 6
6 4 3 4 3 2 5 5 3 4 2 5 5 3 6 6 6 3 7 1 4 1 5 2 4 1 1 3 2 1 2 1 2 3 4 3 2 4 7 9 8 7 6 5 3
4 4 2 4 3 5 4 6 4 4 3 4 4 5 4 7 4 5 7 2 1 4 2 1 3 1 3 3 1 3 3 2 2 2 1 4 5 4 4 8 9 9 9 9 6
5 3 4 3 4 2 4 5 0 4 2 2 1 5 5 5 4 4 5 4 3 5 4 3 2 4 3 3 5 4 1 1 5 2 2 1 9 1 3 6 8 9 9 9 8
7 4 2 4 6 4 2 2 1 4 5 6 2 3 1 5 4 4 3 5 4 2 3 4 2 3 4 2 2 5 4 3 4 3 5 4 7 2 0 2 4 9 9 9 9
6 7 3 3 3 7 7 5 4 2 3 3 4 4 4 4 4 6 3 2 1 2 2 2 1 3 4 4 4 4 5 6 6 4 4 8 5 5 7 8 8 8 10 9 9
2 6 8 11 8 6 7 9 8 7 4 6 1 4 7 5 3 2 5 3 1 4 1 3 3 2 4 5 3 3 5 9 9 7 7 5 5 6 4 10 11 9 8 9 9
9 7 3 3 14 9 11 9 12 7 10 6 5 9 5 6 4 10 9 5 5 4 4 1 2 2 3 3 2 7 9 10 8 9 15 14 23 14 11 11 8 10 10 10 11
3 2 4 11 11 13 9 9 12 12 5 3 8 9 7 6 12 12 11 9 5 7 4 5 6 2 5 1 4 6 8 12 6 6 8 9 11 5 4 2 4 9 11 11 10
Wind_Direction
322 335 338 346 344 341 341 345 351 346 346 344 342 338 334 330 318 52 37 338 331 327 313 265 242 321 23 38 350 315 24 58 33 11 336 2 345 346 340 302 333 304 309 333 326
304 326 328 341 339 337 337 342 346 343 342 341 341 338 334 330 298 56 356 347 334 325 345 351 18 30 52 42 6 0 63 48 40 1 339 335 345 329 339 325 312 335 332 320 303
283 313 319 335 334 333 335 337 340 342 338 338 337 334 329 317 263 31 358 343 329 315 326 311 299 350 77 50 3 10 74 87 36 21 338 334 338 335 315 333 349 332 317 315 331
269 297 312 327 329 331 331 335 336 338 334 338 332 330 326 271 88 14 352 335 315 312 284 264 240 59 62 61 10 100 60 47 25 353 342 355 331 304 355 348 334 317 333 336 333
256 283 304 318 324 328 329 333 333 332 327 331 332 330 306 122 34 343 348 347 348 22 20 360 43 55 87 87 76 91 126 130 349 338 45 342 324 326 5 339 324 351 342 332 321
252 270 295 312 321 324 328 328 326 326 321 326 330 329 263 117 332 354 348 4 13 18 23 28 41 68 68 48 32 84 140 61 287 14 80 336 322 24 346 353 349 345 337 329 320
247 262 287 305 317 321 325 321 320 317 316 318 325 314 63 57 347 328 356 11 14 10 50 43 301 349 149 112 51 134 228 218 67 10 71 291 95 30 356 359 354 339 347 341 344
240 253 275 297 312 318 319 319 313 307 308 303 311 283 66 44 330 6 348 354 33 40 39 6 350 67 26 119 185 257 269 321 88 19 340 355 5 26 7 3 348 346 354 358 358
231 243 264 293 312 317 317 313 298 294 285 292 271 301 87 186 326 348 9 351 317 77 23 320 299 108 199 24 235 29 63 322 74 60 338 43 304 13 8 3 357 352 354 0 0
220 233 258 294 316 316 316 293 302 287 239 253 256 138 164 60 2 326 20 310 327 306 216 240 207 100 32 7 87 14 353 330 354 1 357 349 334 9 359 1 4 3 358 359 357
209 224 249 294 313 322 316 248 215 158 39 30 29 68 62 8 236 64 11 319 232 232 9 99 56 67 60 54 73 67 44 303 268 10 340 14 313 2 7 355 0 25 4 2 354
205 210 234 294 309 305 281 282 86 42 117 91 107 94 42 321 229 58 330 281 233 87 202 70 91 80 68 34 111 116 275 298 286 279 19 321 300 334 25 27 16 31 16 5 1
196 202 209 287 307 280 281 68 102 289 249 125 55 59 73 292 50 14 341 286 352 79 60 67 92 125 300 192 298 184 317 356 310 297 177 276 340 327 129 58 28 39 47 40 19
182 195 193 235 307 139 187 133 184 300 40 150 187 118 187 288 124 353 0 344 154 86 26 82 132 267 270 284 341 290 33 341 322 343 343 86 298 247 104 53 28 26 28 27 26
172 175 194 212 359 215 80 153 256 262 292 71 120 40 163 270 117 107 293 246 43 111 231 140 160 211 260 50 341 24 13 314 309 293 325 32 349 234 177 28 13 24 27 28 28
162 153 170 154 250 76 125 143 270 49 250 130 126 161 172 191 117 147 200 123 334 121 67 93 118 348 4 306 237 323 260 188 263 290 14 32 31 351 15 23 21 21 38 25 16
153 152 178 322 116 160 141 188 54 189 1 211 170 179 214 146 139 231 155 67 151 91 344 191 117 119 247 262 184 234 259 316 0 19 226 21 317 204 137 115 66 33 37 41 42
136 129 55 61 149 170 188 56 180 167 197 232 137 141 169 165 110 183 174 137 201 248 120 163 304 9 6 35 333 315 345 108 188 6 304 341 291 211 118 118 106 93 71 57 53
127 116 128 156 160 247 92 129 214 198 156 150 146 120 141 196 231 200 214 92 65 284 132 136 76 115 18 315 312 345 67 95 30 25 51 219 214 87 153 164 170 156 104 91 82
127 137 115 154 195 219 83 242 227 238 140 184 139 167 161 190 165 200 168 66 147 335 328 138 105 26 313 254 205 14 180 121 309 27 318 282 270 247 198 198 181 170 176 133 111
109 115 154 179 204 54 185 223 212 239 347 209 147 123 160 163 167 183 170 311 218 144 286 106 127 284 11 281 345 183 158 146 136 124 282 315 264 346 189 168 174 175 165 157 162
129 135 168 191 99 178 182 180 44 156 199 252 352 114 143 147 163 171 168 70 127 155 156 55 100 120 76 53 344 317 18 166 122 195 213 104 272 330 24 158 158 160 149 152 153
116 118 158 262 169 196 138 121 241 154 194 181 156 123 162 127 112 111 66 322 83 201 151 191 293 83 331 360 282 257 199 205 99 98 220 152 264 149 222 333 173 159 161 158 157
126 128 146 232 245 149 148 177 177 249 231 189 121 100 110 95 346 135 118 175 101 70 24 356 155 177 182 159 126 218 211 209 167 141 219 227 249 212 214 214 214 199 169 168 169
141 186 173 173 219 186 160 144 138 178 245 194 347 208 155 116 103 124 93 116 311 117 261 106 167 23 304 304 184 222 245 208 221 210 177 244 264 273 264 214 205 196 169 166 183
142 146 175 159 146 146 171 201 163 154 151 222 204 173 151 147 176 180 130 185 183 166 185 74 167 94 309 354 299 270 233 231 251 250 257 260 279 272 258 264 186 183 182 184 187
161 151 134 158 153 174 186 173 187 137 239 184 165 124 124 92 76 83 78 76 119 140 145 130 129 91 270 225 314 306 225 191 214 223 220 213 225 270 300 9 206 188 180 190 194